Weather History for Alexandria, Egypt

Change the Weather History Date:

Tuesday, April 23, 2013

  Actual Average Record
Temperature  
Mean Temperature 64 °F -  
Max Temperature 72 °F 76 °F 104 °F (2008)
Min Temperature 57 °F 61 °F 55 °F (2002)
Growing Degree Days 14 (Base 50)    
Moisture  
Dew Point 54 °F    
Average Humidity 66    
Maximum Humidity 88    
Minimum Humidity 44    
Precipitation  
Precipitation 0.00 in 0.00 in - ()
Sea Level Pressure  
Sea Level Pressure 30.08 in    
Wind  
Wind Speed 6 mph ()    
Max Wind Speed 14 mph    
Max Gust Speed -    
Visibility 6.2 miles    
Events      
Averages and records for this station are not official NWS values.
T = Trace of Precipitation, MM = Missing Value Source: Averaged Metar Reports

Daily Weather History Graph

Daily Weather History Graph

Search for Another Location

Airport:

Trip Planner

Search our weather history database for the weather conditions in past years. The results will help you decide how hot, cold, wet, or windy it might be!

Date:

Astronomy

Apr. 23, 2013 Rise Set
Actual Time 5:23 AM EET 6:33 PM EET
Civil Twilight 4:58 AM EET 6:59 PM EET
Nautical Twilight 4:28 AM EET 7:29 PM EET
Astronomical Twilight 3:57 AM EET 8:00 PM EET
Moon 4:14 PM EET (4/23) 3:30 AM EET (4/23)
Length of Visible Light 14h 00m
Length of Day
13h 10m
Waxing Gibbous, 92% of the Moon is Illuminated
Apr 23
Waxing Gibbous
Apr 25
Full
May 2
Last Quarter
May 10
New
May 18
First Quarter

Hourly Weather History & Observations

Time (EET) Temp. Dew Point Humidity Pressure Visibility Wind Dir Wind Speed Gust Speed Precip Events Conditions
12:00 AM 62.6 °F 51.8 °F 68% 30.04 in 6.2 mi NNW 6.9 mph - N/A   Scattered Clouds
1:00 AM 62.6 °F 51.8 °F 68% 30.04 in 6.2 mi NNW 5.8 mph - N/A   Scattered Clouds
2:00 AM 62 °F 53 °F 63% 30.01 in 6 mi North 5.8 mph - -   Scattered Clouds
2:00 AM 62.6 °F 51.8 °F 68% 30.01 in 6.2 mi North 5.8 mph - N/A   Partly Cloudy
3:00 AM 60.8 °F 51.8 °F 72% 30.01 in 6.2 mi North 4.6 mph - N/A   Partly Cloudy
4:00 AM 60.8 °F 51.8 °F 72% 30.01 in 6.2 mi North 2.3 mph - N/A   Partly Cloudy
5:00 AM 59.0 °F 51.8 °F 77% 30.01 in 6.2 mi NNW 2.3 mph - N/A   Partly Cloudy
6:00 AM 55.4 °F 51.8 °F 88% 30.04 in 6.2 mi NNW 2.3 mph - N/A   Scattered Clouds
7:00 AM 60.8 °F 53.6 °F 77% 30.06 in 6.2 mi Calm Calm - N/A   Scattered Clouds
8:00 AM 64 °F 52 °F 56% 30.08 in 6 mi North 2.3 mph - -   Partly Cloudy
8:00 AM 64.4 °F 51.8 °F 64% 30.06 in 6.2 mi North 2.3 mph - N/A   Scattered Clouds
9:00 AM 68.0 °F 51.8 °F 56% 30.09 in 6.2 mi NE 4.6 mph - N/A   Scattered Clouds
10:00 AM 68.0 °F 53.6 °F 60% 30.12 in 6.2 mi NNW 8.1 mph - N/A   Scattered Clouds
11:00 AM 69.8 °F 53.6 °F 56% 30.12 in 6.2 mi North 6.9 mph - N/A   Scattered Clouds
12:00 PM 71.6 °F 55.4 °F 57% 30.09 in 6.2 mi North 11.5 mph - N/A   Scattered Clouds
1:00 PM 71.6 °F 55.4 °F 57% 30.06 in 6.2 mi North 11.5 mph - N/A   Scattered Clouds
2:00 PM 72 °F 55 °F 44% 30.09 in 6 mi NNW 13.8 mph - -   Partly Cloudy
2:00 PM 71.6 °F 55.4 °F 57% 30.09 in 6.2 mi NNW 13.8 mph - N/A   Scattered Clouds
3:00 PM 71.6 °F 55.4 °F 57% 30.09 in 6.2 mi NNE 9.2 mph - N/A   Partly Cloudy
4:00 PM 69.8 °F 53.6 °F 56% 30.09 in 6.2 mi NNE 11.5 mph - N/A   Partly Cloudy
5:00 PM 69.8 °F 53.6 °F 56% 30.09 in 6.2 mi NNE 11.5 mph - N/A   Partly Cloudy
6:00 PM 66.2 °F 55.4 °F 68% 30.09 in - NE 10.4 mph - N/A   Clear
7:00 PM 64.4 °F 57.2 °F 77% 30.09 in - NE 11.5 mph - N/A   Clear
8:00 PM 64 °F 56 °F 69% 30.12 in 6 mi NE 11.5 mph - -  
8:00 PM 64.4 °F 57.2 °F 77% 30.12 in - NE 11.5 mph - N/A   Clear
9:00 PM 62.6 °F 55.4 °F 77% 30.12 in - NE 9.2 mph - N/A   Clear
10:00 PM 62.6 °F 55.4 °F 77% 30.15 in - NE 9.2 mph - N/A   Clear
11:00 PM 62.6 °F 55.4 °F 77% 30.12 in - ENE 5.8 mph - N/A   Clear